Tracking 23885 objects as of 28-Nov-2021
HD Live streaming from Space Station
objects crossing your sky now

GLOBAL-15

Track GLOBAL-15 now!
10-day predictions


NORAD ID: 49470
Int'l Code: 2021-106B
Perigee: 431.7 km
Apogee: 447.2 km
Inclination: 42.0 °
Period: 93.2 minutes
Semi major axis: 6810 km
RCS: Unknown
Launch date: November 18, 2021
Source: United States (US)
Launch site: Rocket Lab Launch Complex (RLLC)
aabbcc
Your satellite tracking list
Your tracking list is empty




NASA's NSSDC Master Catalog

Two Line Element Set (TLE):
1 49470U 21106B   21332.30741011 -.00000299  00000-0  00000+0 0  9992
2 49470  42.0175 316.2367 0011329 341.3808  18.6934 15.44685050  1589
Source of the keplerian elements: AFSPC